This is the latest recevied weather packets stored in our database for station/object VE1DX. If no packets are shown the sender has not sent any weather packets the latest 10 day(s).
| Time | Temp. | Humidity | Pressure | Rain* | Wind** | Luminosity | Snow |
|---|---|---|---|---|---|---|---|
| 1777842917 | 5° C | 94% | 984.5 hPa | 2.03 mm | - | - | - |
| 1777842617 | 5° C | 94% | 984.9 hPa | 2.03 mm | - | - | - |
| 1777842317 | 5° C | 94% | 985 hPa | 2.29 mm | - | - | - |
| 1777842017 | 5° C | 94% | 985.1 hPa | 2.03 mm | - | - | - |
| 1777841717 | 5° C | 94% | 985.4 hPa | 2.03 mm | - | - | - |
| 1777841417 | 5° C | 94% | 985.5 hPa | 2.03 mm | - | - | - |
| 1777841117 | 5° C | 94% | 986 hPa | 2.03 mm | - | - | - |
| 1777840817 | 5° C | 94% | 986.2 hPa | 2.03 mm | - | - | - |
| 1777840517 | 5° C | 94% | 986.5 hPa | 1.78 mm | - | - | - |
| 1777840217 | 5° C | 94% | 986.8 hPa | 1.52 mm | - | - | - |
| 1777839917 | 5° C | 94% | 986.8 hPa | 1.52 mm | - | - | - |
| 1777839617 | 5° C | 94% | 987.3 hPa | 1.52 mm | - | - | - |
| 1777839317 | 5° C | 94% | 987.7 hPa | 1.27 mm | - | - | - |
| 1777839017 | 5° C | 94% | 988.1 hPa | 1.27 mm | - | - | - |
| 1777838717 | 5° C | 94% | 988.3 hPa | 1.27 mm | - | - | - |
| 1777838417 | 5° C | 94% | 988.7 hPa | 1.27 mm | - | - | - |
| 1777838117 | 5° C | 93% | 989.1 hPa | 1.52 mm | - | - | - |
| 1777837817 | 5° C | 93% | 989.4 hPa | 1.52 mm | - | - | - |
| 1777837517 | 5° C | 93% | 989.6 hPa | 1.52 mm | - | - | - |
| 1777837217 | 5° C | 93% | 990 hPa | 1.78 mm | - | - | - |
| 1777836918 | 5° C | 93% | 990.4 hPa | 2.29 mm | - | - | - |
| 1777836617 | 5° C | 93% | 990.7 hPa | 2.29 mm | - | - | - |
| 1777836317 | 5° C | 93% | 991.1 hPa | 2.79 mm | - | - | - |
| 1777836017 | 5° C | 93% | 991.5 hPa | 3.05 mm | - | - | - |
| 1777835717 | 5° C | 93% | 991.7 hPa | 3.3 mm | - | - | - |
* Rain latest hour (hover to see other rain measurements)
** Current wind speed in m/s (hover to see current wind gust speed)